| time (UTC) | temp F | wind direction | speed knots | gust knots | rain 1hr in | rain 24hr in | rain mn in | humidity % | barometer mb |
| 20260906181545 | 69 | 281 | 0.9 | 4.3 | 0.34 | 0.34 | 0.34 | 100 | 1020.0 |
| 20260906180108 | 69 | 0 | 0.0 | 2.6 | 0.02 | 0.02 | 0.02 | 99 | 1019.5 |
| 20260906174547 | 69 | 0 | 0.0 | 2.6 | 0.00 | 0.00 | 0.00 | 99 | 1018.7 |
| 20260906173046 | 69 | 122 | 2.6 | 9.6 | 0.00 | 0.00 | 0.00 | 99 | 1018.8 |
| 20260906171544 | 70 | 111 | 2.6 | 6.1 | 0.00 | 0.00 | 0.00 | 99 | 1019.0 |
| 20260906170052 | 70 | 110 | 3.5 | 7.0 | 0.00 | 0.00 | 0.00 | 99 | 1018.8 |
| 20260906164546 | 70 | 112 | 2.6 | 6.1 | 0.00 | 0.00 | 0.00 | 99 | 1018.8 |
| 20260906163103 | 70 | 84 | 3.5 | 7.8 | 0.00 | 0.00 | 0.00 | 99 | 1018.9 |
| 20260906161546 | 70 | 116 | 3.5 | 7.8 | 0.00 | 0.00 | 0.00 | 99 | 1019.2 |
| 20260906160052 | 70 | 134 | 2.6 | 6.1 | 0.00 | 0.00 | 0.00 | 98 | 1018.8 |
| 20260906154547 | 70 | 114 | 2.6 | 5.2 | 0.00 | 0.00 | 0.00 | 99 | 1018.7 |
| 20260906153051 | 70 | 121 | 3.5 | 7.0 | 0.00 | 0.00 | 0.00 | 99 | 1018.8 |
| 20260906151543 | 70 | 141 | 3.5 | 8.7 | 0.00 | 0.00 | 0.00 | 99 | 1018.6 |
| 20260906150049 | 70 | 160 | 3.5 | 7.0 | 0.00 | 0.00 | 0.00 | 99 | 1018.7 |
| 20260906144546 | 70 | 113 | 4.3 | 8.7 | 0.00 | 0.00 | 0.00 | 99 | 1018.5 |
| 20260906143050 | 70 | 196 | 2.6 | 7.0 | 0.00 | 0.00 | 0.00 | 99 | 1018.7 |
| 20260906141545 | 70 | 146 | 3.5 | 7.0 | 0.00 | 0.00 | 0.00 | 99 | 1018.6 |
| 20260906140053 | 70 | 150 | 3.5 | 7.8 | 0.00 | 0.00 | 0.00 | 99 | 1018.5 |
| 20260906134546 | 70 | 177 | 2.6 | 6.1 | 0.00 | 0.01 | 0.00 | 99 | 1018.6 |
| 20260906133047 | 70 | 140 | 3.5 | 8.7 | 0.00 | 0.01 | 0.00 | 99 | 1018.3 |
| 20260906131559 | 70 | 129 | 2.6 | 6.1 | 0.00 | 0.01 | 0.00 | 99 | 1018.3 |
| 20260906130046 | 69 | 129 | 2.6 | 5.2 | 0.00 | 0.01 | 0.00 | 100 | 1018.3 |
| 20260906124547 | 69 | 115 | 3.5 | 7.0 | 0.00 | 0.01 | 0.00 | 100 | 1018.3 |
| 20260906123050 | 68 | 135 | 2.6 | 4.3 | 0.00 | 0.01 | 0.00 | 100 | 1018.1 |
| 20260906121549 | 68 | 121 | 1.7 | 5.2 | 0.00 | 0.01 | 0.00 | 100 | 1017.9 |
| 20260906120055 | 68 | 0 | 0.0 | 4.3 | 0.00 | 0.01 | 0.00 | 100 | 1017.8 |
| 20260906114552 | 68 | 155 | 0.0 | 5.2 | 0.00 | 0.01 | 0.00 | 100 | 1017.7 |
| 20260906113046 | 68 | 0 | 0.0 | 0.9 | 0.00 | 0.01 | 0.00 | 100 | 1017.8 |
| 20260906111545 | 68 | 0 | 0.0 | 0.0 | 0.00 | 0.01 | 0.00 | 100 | 1017.8 |
| 20260906110045 | 68 | 0 | 0.0 | 0.0 | 0.00 | 0.01 | 0.00 | 99 | 1017.8 |
| 20260906104540 | 68 | 0 | 0.0 | 0.0 | 0.00 | 0.01 | 0.00 | 99 | 1017.6 |
| 20260906103045 | 68 | 0 | 0.0 | 0.0 | 0.00 | 0.01 | 0.00 | 99 | 1017.4 |
| 20260906101550 | 69 | 0 | 0.0 | 0.0 | 0.00 | 0.01 | 0.00 | 99 | 1017.3 |
| 20260906100044 | 69 | 0 | 0.0 | 0.0 | 0.00 | 0.01 | 0.00 | 99 | 1017.5 |
| 20260906094548 | 69 | 0 | 0.0 | 0.0 | 0.00 | 0.01 | 0.00 | 100 | 1017.3 |
| 20260906093055 | 69 | 0 | 0.0 | 0.0 | 0.00 | 0.01 | 0.00 | 99 | 1017.1 |
| 20260906091545 | 69 | 0 | 0.0 | 0.0 | 0.00 | 0.01 | 0.00 | 99 | 1017.0 |
| 20260906090046 | 69 | 0 | 0.0 | 0.0 | 0.00 | 0.01 | 0.00 | 99 | 1017.0 |
| 20260906084553 | 69 | 0 | 0.0 | 0.0 | 0.00 | 0.01 | 0.00 | 99 | 1017.1 |
| 20260906083046 | 69 | 0 | 0.0 | 0.0 | 0.00 | 0.01 | 0.00 | 100 | 1017.1 |
| 20260906081547 | 69 | 0 | 0.0 | 0.0 | 0.00 | 0.01 | 0.00 | 100 | 1016.8 |
| 20260906080053 | 70 | 0 | 0.0 | 0.0 | 0.00 | 0.01 | 0.00 | 100 | 1016.7 |
| 20260906074545 | 70 | 0 | 0.0 | 0.9 | 0.00 | 0.01 | 0.00 | 100 | 1016.6 |
| 20260906073046 | 69 | 0 | 0.0 | 0.0 | 0.00 | 0.01 | 0.00 | 100 | 1016.7 |
| 20260906071547 | 69 | 0 | 0.0 | 0.0 | 0.00 | 0.01 | 0.00 | 100 | 1017.0 |
| 20260906070046 | 69 | 0 | 0.0 | 0.0 | 0.00 | 0.01 | 0.00 | 100 | 1017.2 |
| 20260906064544 | 69 | 0 | 0.0 | 0.0 | 0.00 | 0.01 | 0.00 | 100 | 1017.3 |
| 20260906063053 | 69 | 0 | 0.0 | 0.0 | 0.00 | 0.01 | 0.00 | 100 | 1017.3 |
| 20260906061549 | 69 | 0 | 0.0 | 0.0 | 0.00 | 0.01 | 0.00 | 100 | 1017.3 |
| 20260906060056 | 69 | 0 | 0.0 | 0.0 | 0.00 | 0.01 | 0.00 | 100 | 1017.2 |
| 20260906054548 | 69 | 0 | 0.0 | 0.0 | 0.00 | 0.01 | 0.00 | 100 | 1017.3 |
| 20260906053046 | 70 | 0 | 0.0 | 0.0 | 0.00 | 0.01 | 0.00 | 100 | 1017.3 |
| 20260906051548 | 70 | 0 | 0.0 | 0.0 | 0.00 | 0.01 | 0.00 | 100 | 1017.1 |
| 20260906050047 | 70 | 0 | 0.0 | 0.0 | 0.00 | 0.01 | 0.00 | 100 | 1017.0 |
| 20260906044540 | 71 | 0 | 0.0 | 0.0 | 0.00 | 0.01 | 0.01 | 100 | 1017.0 |
| 20260906043047 | 71 | 0 | 0.0 | 0.0 | 0.00 | 0.01 | 0.01 | 100 | 1016.9 |
| 20260906041550 | 71 | 0 | 0.0 | 0.0 | 0.00 | 0.01 | 0.01 | 100 | 1017.0 |
| 20260906040050 | 71 | 0 | 0.0 | 0.0 | 0.00 | 0.01 | 0.01 | 100 | 1017.0 |
| 20260906034540 | 71 | 0 | 0.0 | 0.0 | 0.00 | 0.01 | 0.01 | 99 | 1017.0 |
| 20260906033046 | 72 | 0 | 0.0 | 0.0 | 0.00 | 0.01 | 0.01 | 99 | 1017.3 |
| 20260906031544 | 72 | 0 | 0.0 | 0.0 | 0.00 | 0.01 | 0.01 | 99 | 1017.1 |
| 20260906030046 | 72 | 0 | 0.0 | 0.0 | 0.00 | 0.01 | 0.01 | 99 | 1017.2 |
| 20260906024550 | 72 | 0 | 0.0 | 0.0 | 0.00 | 0.01 | 0.01 | 99 | 1017.1 |
| 20260906023048 | 72 | 0 | 0.0 | 0.0 | 0.00 | 0.01 | 0.01 | 98 | 1017.1 |
| 20260906021553 | 73 | 0 | 0.0 | 0.0 | 0.00 | 0.01 | 0.01 | 98 | 1016.8 |
| 20260906020045 | 73 | 0 | 0.0 | 0.0 | 0.00 | 0.01 | 0.01 | 97 | 1016.9 |
| 20260906014549 | 73 | 0 | 0.0 | 0.0 | 0.00 | 0.01 | 0.01 | 97 | 1016.6 |
| 20260906013047 | 74 | 0 | 0.0 | 0.0 | 0.00 | 0.01 | 0.01 | 97 | 1016.3 |
| 20260906011555 | 74 | 0 | 0.0 | 0.0 | 0.00 | 0.01 | 0.01 | 96 | 1016.4 |
| 20260906010042 | 75 | 0 | 0.0 | 0.0 | 0.00 | 0.01 | 0.01 | 96 | 1016.3 |
| 20260906004545 | 75 | 0 | 0.0 | 0.0 | 0.00 | 0.01 | 0.01 | 95 | 1016.0 |
| 20260906003044 | 76 | 0 | 0.0 | 0.0 | 0.00 | 0.01 | 0.01 | 93 | 1016.0 |
| 20260906001546 | 77 | 0 | 0.0 | 0.0 | 0.00 | 0.01 | 0.01 | 92 | 1015.8 |
| 20260906000049 | 78 | 0 | 0.0 | 0.0 | 0.00 | 0.01 | 0.01 | 91 | 1015.8 |
| 20260905234547 | 78 | 0 | 0.0 | 0.0 | 0.00 | 0.01 | 0.01 | 92 | 1015.8 |
| 20260905233104 | 79 | 0 | 0.0 | 0.0 | 0.00 | 0.01 | 0.01 | 90 | 1015.7 |
| 20260905231552 | 79 | 0 | 0.0 | 0.0 | 0.00 | 0.01 | 0.01 | 93 | 1015.7 |
| 20260905230048 | 80 | 0 | 0.0 | 0.0 | 0.00 | 0.01 | 0.01 | 92 | 1015.6 |
| 20260905224606 | 80 | 0 | 0.0 | 0.0 | 0.00 | 0.01 | 0.01 | 92 | 1015.5 |
| 20260905223044 | 80 | 0 | 0.0 | 0.0 | 0.00 | 0.01 | 0.01 | 92 | 1015.5 |
| 20260905221542 | 80 | 0 | 0.0 | 0.0 | 0.00 | 0.01 | 0.01 | 92 | 1015.4 |
| 20260905220051 | 80 | 0 | 0.0 | 0.0 | 0.00 | 0.01 | 0.01 | 92 | 1015.1 |
| 20260905214545 | 80 | 0 | 0.0 | 0.0 | 0.00 | 0.01 | 0.01 | 91 | 1014.7 |
| 20260905213054 | 80 | 0 | 0.0 | 0.0 | 0.00 | 0.01 | 0.01 | 92 | 1014.8 |
| 20260905211545 | 80 | 0 | 0.0 | 0.9 | 0.00 | 0.01 | 0.01 | 92 | 1015.4 |
| 20260905210045 | 80 | 0 | 0.0 | 0.0 | 0.00 | 0.01 | 0.01 | 90 | 1015.5 |
| 20260905204544 | 80 | 0 | 0.0 | 0.0 | 0.00 | 0.01 | 0.01 | 89 | 1015.5 |
| 20260905203053 | 81 | 0 | 0.0 | 0.0 | 0.00 | 0.01 | 0.01 | 87 | 1015.6 |
| 20260905201546 | 81 | 0 | 0.0 | 0.9 | 0.00 | 0.01 | 0.01 | 89 | 1015.7 |
| 20260905200050 | 80 | 0 | 0.0 | 0.9 | 0.00 | 0.01 | 0.01 | 89 | 1015.7 |
| 20260905194541 | 80 | 0 | 0.0 | 0.0 | 0.00 | 0.01 | 0.01 | 91 | 1015.3 |
| 20260905193046 | 79 | 0 | 0.0 | 0.0 | 0.00 | 0.01 | 0.01 | 91 | 1015.5 |
| 20260905191549 | 78 | 0 | 0.0 | 0.0 | 0.00 | 0.01 | 0.01 | 91 | 1015.0 |
| 20260905190100 | 78 | 0 | 0.0 | 5.2 | 0.00 | 0.01 | 0.01 | 92 | 1014.6 |
| 20260905184558 | 77 | 0 | 0.0 | 9.6 | 0.00 | 0.01 | 0.01 | 93 | 1014.5 |
| 20260905183047 | 77 | 0 | 0.0 | 7.0 | 0.00 | 0.01 | 0.01 | 94 | 1015.5 |